Time,TemperatureF,DewpointF,PressureIn,WindDirection,WindDirectionDegrees,WindSpeedMPH,WindSpeedGustMPH,Humidity,HourlyPrecipIn,Conditions,Clouds,dailyrainin,SolarRadiationWatts/m^2,SoftwareType,DateUTC
2013-11-03 00:22:00,49.0,37.0,-100.00,SW,236,1.0,4.0,63,0.00,,,0.00,0.000000,,2013-11-03 07:22:00,
2013-11-03 00:32:00,49.0,37.0,-100.00,SW,236,1.0,4.0,63,0.00,,,0.00,0.000000,,2013-11-03 07:32:00,
2013-11-03 00:42:00,49.0,37.0,-100.00,SW,236,1.0,4.0,63,0.00,,,0.00,0.000000,,2013-11-03 07:42:00,
2013-11-03 00:52:00,49.0,37.0,-100.00,SW,236,1.0,4.0,63,0.00,,,0.00,0.000000,,2013-11-03 07:52:00,
2013-11-03 01:01:00,49.0,37.0,-100.00,SW,236,1.0,4.0,63,0.00,,,0.00,0.000000,,2013-11-03 08:01:00,
2013-11-03 01:21:00,48.0,37.0,-100.00,SW,215,3.0,5.0,65,0.00,,,0.00,0.000000,,2013-11-03 08:21:00,
2013-11-03 01:32:00,48.0,37.0,-100.00,SW,215,3.0,5.0,65,0.00,,,0.00,0.000000,,2013-11-03 08:32:00,
2013-11-03 01:42:00,48.0,37.0,-100.00,SW,215,3.0,5.0,65,0.00,,,0.00,0.000000,,2013-11-03 08:42:00,
2013-11-03 01:52:00,48.0,37.0,-100.00,SW,215,3.0,5.0,65,0.00,,,0.00,0.000000,,2013-11-03 08:52:00,
2013-11-03 01:02:00,48.0,37.0,-100.00,SW,215,3.0,5.0,65,0.00,,,0.00,0.000000,,2013-11-03 09:02:00,
2013-11-03 01:42:00,45.0,37.0,-100.00,SW,226,2.0,5.0,73,0.00,,,0.00,0.000000,,2013-11-03 09:42:00,
2013-11-03 01:53:00,45.0,37.0,-100.00,SW,226,2.0,5.0,73,0.00,,,0.00,0.000000,,2013-11-03 09:53:00,
2013-11-03 02:03:00,45.0,37.0,-100.00,SW,226,2.0,5.0,73,0.00,,,0.00,0.000000,,2013-11-03 10:03:00,
2013-11-03 02:42:00,42.0,36.0,-100.00,NNW,347,0.0,3.0,80,0.00,,,0.00,0.000000,,2013-11-03 10:42:00,
2013-11-03 02:53:00,42.0,36.0,-100.00,NNW,347,0.0,3.0,80,0.00,,,0.00,0.000000,,2013-11-03 10:53:00,
2013-11-03 03:02:00,42.0,36.0,-100.00,NNW,347,0.0,3.0,80,0.00,,,0.00,0.000000,,2013-11-03 11:02:00,
2013-11-03 03:43:00,40.0,34.0,-100.00,SW,230,1.0,4.0,80,0.00,,,0.00,0.000000,,2013-11-03 11:43:00,
2013-11-03 03:52:00,40.0,34.0,-100.00,SW,230,1.0,4.0,80,0.00,,,0.00,0.000000,,2013-11-03 11:52:00,
2013-11-03 04:01:00,40.0,34.0,-100.00,SW,230,1.0,4.0,80,0.00,,,0.00,0.000000,,2013-11-03 12:01:00,
2013-11-03 04:22:00,39.0,34.0,-100.00,SW,224,2.0,4.0,82,0.00,,,0.00,0.000000,,2013-11-03 12:22:00,
2013-11-03 04:32:00,39.0,34.0,-100.00,SW,224,2.0,4.0,82,0.00,,,0.00,0.000000,,2013-11-03 12:32:00,
2013-11-03 04:52:00,39.0,34.0,-100.00,SW,224,2.0,4.0,82,0.00,,,0.00,0.000000,,2013-11-03 12:52:00,
2013-11-03 05:02:00,39.0,34.0,-100.00,SW,224,2.0,4.0,82,0.00,,,0.00,0.000000,,2013-11-03 13:02:00,
2013-11-03 05:42:00,39.0,34.0,-100.00,SSW,209,3.0,5.0,81,0.00,,,0.00,0.000000,,2013-11-03 13:42:00,
2013-11-03 05:52:00,39.0,34.0,-100.00,SSW,209,3.0,5.0,81,0.00,,,0.00,0.000000,,2013-11-03 13:52:00,
2013-11-03 06:02:00,39.0,34.0,-100.00,SSW,209,3.0,5.0,81,0.00,,,0.00,0.000000,,2013-11-03 14:02:00,
2013-11-03 06:22:00,39.0,32.0,-100.00,SSW,209,3.0,6.0,77,0.00,,,0.00,0.000000,,2013-11-03 14:22:00,
2013-11-03 06:32:00,39.0,32.0,-100.00,SSW,209,3.0,6.0,77,0.00,,,0.00,0.000000,,2013-11-03 14:32:00,
2013-11-03 06:42:00,39.0,32.0,-100.00,SSW,209,3.0,6.0,77,0.00,,,0.00,0.000000,,2013-11-03 14:42:00,
2013-11-03 06:52:00,39.0,32.0,-100.00,SSW,209,3.0,6.0,77,0.00,,,0.00,0.000000,,2013-11-03 14:52:00,
2013-11-03 07:02:00,39.0,32.0,-100.00,SSW,209,3.0,6.0,77,0.00,,,0.00,0.000000,,2013-11-03 15:02:00,
2013-11-03 08:43:00,46.0,32.0,-100.00,SSW,205,5.0,8.0,57,-99.99,,,0.00,125.000000,,2013-11-03 16:43:00,
2013-11-03 08:53:00,46.0,32.0,-100.00,SSW,205,5.0,8.0,57,-99.99,,,0.00,125.000000,,2013-11-03 16:53:00,
2013-11-03 09:03:00,46.0,32.0,-100.00,SSW,205,5.0,8.0,57,-99.99,,,0.00,125.000000,,2013-11-03 17:03:00,
2013-11-03 09:23:00,53.0,33.0,-100.00,SSW,200,2.0,7.0,47,0.00,,,0.00,251.000000,,2013-11-03 17:23:00,
2013-11-03 09:33:00,53.0,33.0,-100.00,SSW,200,2.0,7.0,47,0.00,,,0.00,251.000000,,2013-11-03 17:33:00,
2013-11-03 09:44:00,53.0,33.0,-100.00,SSW,200,2.0,7.0,47,0.00,,,0.00,251.000000,,2013-11-03 17:44:00,
2013-11-03 09:53:00,53.0,33.0,-100.00,SSW,200,2.0,7.0,47,0.00,,,0.00,251.000000,,2013-11-03 17:53:00,
2013-11-03 10:02:00,53.0,33.0,-100.00,SSW,200,2.0,7.0,47,0.00,,,0.00,251.000000,,2013-11-03 18:02:00,
2013-11-03 10:42:00,64.0,38.0,-100.00,South,181,1.0,4.0,38,0.00,,,0.00,444.000000,,2013-11-03 18:42:00,
2013-11-03 10:52:00,64.0,38.0,-100.00,South,181,1.0,4.0,38,0.00,,,0.00,444.000000,,2013-11-03 18:52:00,
2013-11-03 11:01:00,64.0,38.0,-100.00,South,181,1.0,4.0,38,0.00,,,0.00,444.000000,,2013-11-03 19:01:00,
2013-11-03 11:22:00,69.0,32.0,-100.00,East,84,7.0,14.0,25,0.00,,,0.00,552.000000,,2013-11-03 19:22:00,
2013-11-03 11:33:00,69.0,32.0,-100.00,East,84,7.0,14.0,25,0.00,,,0.00,552.000000,,2013-11-03 19:33:00,
2013-11-03 11:42:00,69.0,32.0,-100.00,East,84,7.0,14.0,25,0.00,,,0.00,552.000000,,2013-11-03 19:42:00,
2013-11-03 11:53:00,69.0,32.0,-100.00,East,84,7.0,14.0,25,0.00,,,0.00,552.000000,,2013-11-03 19:53:00,
2013-11-03 12:01:00,69.0,32.0,-100.00,East,84,7.0,14.0,25,0.00,,,0.00,552.000000,,2013-11-03 20:01:00,
2013-11-03 12:22:00,69.0,27.0,-100.00,East,94,8.0,17.0,21,0.00,,,0.00,625.000000,,2013-11-03 20:22:00,
2013-11-03 12:32:00,69.0,27.0,-100.00,East,94,8.0,17.0,21,0.00,,,0.00,625.000000,,2013-11-03 20:32:00,
2013-11-03 12:42:00,69.0,27.0,-100.00,East,94,8.0,17.0,21,0.00,,,0.00,625.000000,,2013-11-03 20:42:00,
2013-11-03 12:52:00,69.0,27.0,-100.00,East,94,8.0,17.0,21,0.00,,,0.00,625.000000,,2013-11-03 20:52:00,
2013-11-03 13:02:00,69.0,27.0,-100.00,East,94,8.0,17.0,21,0.00,,,0.00,625.000000,,2013-11-03 21:02:00,
2013-11-03 17:42:00,62.0,28.0,-100.00,ESE,105,6.0,12.0,27,0.00,,,0.00,33.000000,,2013-11-04 01:42:00,
2013-11-03 17:52:00,62.0,28.0,-100.00,ESE,105,6.0,12.0,27,0.00,,,0.00,33.000000,,2013-11-04 01:52:00,
2013-11-03 18:02:00,62.0,28.0,-100.00,ESE,105,6.0,12.0,27,0.00,,,0.00,33.000000,,2013-11-04 02:02:00,
2013-11-03 18:42:00,58.0,30.0,-100.00,ENE,67,4.0,13.0,34,0.00,,,0.00,0.000000,,2013-11-04 02:42:00,
2013-11-03 18:52:00,58.0,30.0,-100.00,ENE,67,4.0,13.0,34,0.00,,,0.00,0.000000,,2013-11-04 02:52:00,
2013-11-03 19:02:00,58.0,30.0,-100.00,ENE,67,4.0,13.0,34,0.00,,,0.00,0.000000,,2013-11-04 03:02:00,
2013-11-03 19:04:00,54.0,30.0,-100.00,SSW,206,0.0,7.0,40,0.00,,,0.00,0.000000,,2013-11-04 03:04:00,
2013-11-03 19:44:00,54.0,30.0,-100.00,SSW,206,0.0,7.0,40,0.00,,,0.00,0.000000,,2013-11-04 03:44:00,
2013-11-03 19:54:00,54.0,30.0,-100.00,SSW,206,0.0,7.0,40,0.00,,,0.00,0.000000,,2013-11-04 03:54:00,
2013-11-03 20:43:00,52.0,30.0,-100.00,ESE,121,3.0,5.0,43,0.00,,,0.00,0.000000,,2013-11-04 04:43:00,
2013-11-03 20:52:00,52.0,30.0,-100.00,ESE,121,3.0,5.0,43,0.00,,,0.00,0.000000,,2013-11-04 04:52:00,
2013-11-03 21:03:00,52.0,30.0,-100.00,ESE,121,3.0,5.0,43,0.00,,,0.00,0.000000,,2013-11-04 05:03:00,
2013-11-03 21:44:00,50.0,29.0,-100.00,WSW,240,1.0,3.0,45,0.00,,,0.00,0.000000,,2013-11-04 05:44:00,
2013-11-03 21:53:00,50.0,29.0,-100.00,WSW,240,1.0,3.0,45,0.00,,,0.00,0.000000,,2013-11-04 05:53:00,
2013-11-03 22:01:00,50.0,29.0,-100.00,WSW,240,1.0,3.0,45,0.00,,,0.00,0.000000,,2013-11-04 06:01:00,
2013-11-03 22:42:00,46.0,28.0,-100.00,SW,223,1.0,4.0,49,0.00,,,0.00,0.000000,,2013-11-04 06:42:00,
2013-11-03 22:52:00,46.0,28.0,-100.00,SW,223,1.0,4.0,49,0.00,,,0.00,0.000000,,2013-11-04 06:52:00,
2013-11-03 23:01:00,46.0,28.0,-100.00,SW,223,1.0,4.0,49,0.00,,,0.00,0.000000,,2013-11-04 07:01:00,
2013-11-03 23:42:00,44.0,28.0,-100.00,SW,222,1.0,3.0,52,0.00,,,0.00,0.000000,,2013-11-04 07:42:00,
2013-11-03 23:52:00,44.0,28.0,-100.00,SW,222,1.0,3.0,52,0.00,,,0.00,0.000000,,2013-11-04 07:52:00,